Columbia, MO

12:10 PM CDT on April 25, 2017 (GMT -0500)
Columbia Regional

Weather History for KCOU - November, 2011

Change the Weather History Date:

Tuesday, November 22, 2011

  Actual Average Record
Temperature  
Mean Temperature 45 °F 41 °F  
Max Temperature 48 °F 50 °F 75 °F (1955)
Min Temperature 42 °F 32 °F 9 °F (1926)
Degree Days  
Heating Degree Days 20 24  
Month to date heating degree days 339 412  
Since 1 July heating degree days 692 777  
Cooling Degree Days 0 0  
Month to date cooling degree days 0 0  
Year to date cooling degree days 1508 1247  
Moisture  
Dew Point 43 °F    
Average Humidity 93    
Maximum Humidity 100    
Minimum Humidity 86    
Precipitation  
Precipitation 0.10 in 0.11 in 1.67 in (1992)
Month to date precipitation 3.58 2.39  
Year to date precipitation 35.25 39.32  
Snow  
Snow 0.00 in 0.10 in 3.50 in (1941)
Month to date snowfall T 0.5  
Since 1 July snowfall T 0.5  
Since 1 September snowfall T 0.5  
Snow Depth 0.00 in    
Sea Level Pressure  
Sea Level Pressure 29.99 in    
Wind  
Wind Speed 11 mph (NNW)    
Max Wind Speed 18 mph    
Max Gust Speed 25 mph    
Visibility 6 miles    
Events Rain    
T = Trace of Precipitation, MM = Missing Value Source: NWS Daily Summary

Daily Weather History Graph

Daily Weather History Graph

Search for Another Location

Airport or City:

Trip Planner

Search our weather history database for the weather conditions in past years. The results will help you decide how hot, cold, wet, or windy it might be!

Date:

Astronomy

Nov. 22, 2011 Rise Set
Actual Time 6:58 AM CST 4:50 PM CST
Civil Twilight 6:29 AM CST 5:19 PM CST
Nautical Twilight 5:57 AM CST 5:52 PM CST
Astronomical Twilight 5:25 AM CST 6:24 PM CST
Moon 3:51 AM CST (11/22) 2:49 PM CST (11/22)
Length of Visible Light 10h 49m
Length of Day
9h 52m
Waning Crescent, 9% of the Moon is Illuminated
Nov 22
Waning Crescent
Nov 25
New
Dec 2
First Quarter
Dec 10
Full
Dec 17
Last Quarter

Hourly Weather History & Observations

Time (CST) Temp. Windchill Dew Point Humidity Pressure Visibility Wind Dir Wind Speed Gust Speed Precip Events Conditions
12:54 AM 43.0 °F 39.5 °F 42.1 °F 97% 30.05 in 3.0 mi NE 5.8 mph - 0.02 in Rain Light Rain
1:41 AM 42.8 °F 39.3 °F 42.8 °F 100% 30.03 in 3.0 mi ENE 5.8 mph - 0.01 in Rain Light Rain
1:54 AM 43.0 °F 37.7 °F 42.1 °F 97% 30.01 in 3.0 mi NE 9.2 mph - 0.01 in Rain Light Rain
2:03 AM 42.8 °F 37.5 °F 42.8 °F 100% 29.99 in 2.5 mi NE 9.2 mph - 0.00 in Rain Light Rain
2:24 AM 42.8 °F 37.5 °F 42.8 °F 100% 29.99 in 1.5 mi NNE 9.2 mph - 0.00 in   Overcast
2:50 AM 42.8 °F 36.2 °F 42.8 °F 100% 29.95 in 2.5 mi NE 12.7 mph - 0.00 in   Overcast
2:54 AM 43.0 °F 36.8 °F 42.1 °F 97% 29.96 in 3.0 mi NNE 11.5 mph - 0.00 in   Overcast
3:54 AM 43.0 °F 37.2 °F 42.1 °F 97% 29.93 in 4.0 mi ENE 10.4 mph - 0.00 in   Overcast
4:36 AM 42.8 °F 38.0 °F 42.8 °F 100% 29.92 in 5.0 mi NNE 8.1 mph - N/A   Overcast
4:54 AM 44.1 °F 38.6 °F 43.0 °F 96% 29.93 in 5.0 mi NNE 10.4 mph - N/A   Overcast
5:33 AM 42.8 °F 37.0 °F 42.8 °F 100% 29.94 in 2.5 mi NNW 10.4 mph - N/A Rain Light Rain
5:54 AM 43.0 °F 36.4 °F 43.0 °F 100% 29.96 in 2.5 mi NNW 12.7 mph - 0.03 in Rain Light Rain
6:06 AM 42.8 °F 35.8 °F 42.8 °F 100% 29.94 in 2.5 mi NNW 13.8 mph - 0.01 in Rain Light Rain
6:25 AM 42.8 °F 35.4 °F 42.8 °F 100% 29.95 in 3.0 mi North 15.0 mph - 0.01 in Rain Light Rain
6:33 AM 42.8 °F 35.4 °F 42.8 °F 100% 29.95 in 4.0 mi North 15.0 mph - 0.01 in Rain Light Rain
6:54 AM 42.1 °F 34.2 °F 42.1 °F 100% 29.96 in 4.0 mi North 16.1 mph - 0.02 in Rain Light Rain
7:44 AM 42.8 °F 35.8 °F 42.8 °F 100% 29.93 in 8.0 mi NNE 13.8 mph - 0.01 in Rain Light Rain
7:54 AM 43.0 °F 36.0 °F 43.0 °F 100% 29.94 in 10.0 mi NNE 13.8 mph - 0.02 in Rain Light Rain
8:26 AM 44.6 °F 38.1 °F 44.6 °F 100% 29.93 in 10.0 mi North 13.8 mph - 0.00 in   Overcast
8:54 AM 44.6 °F 38.1 °F 44.6 °F 100% 29.93 in 10.0 mi North 13.8 mph - N/A   Overcast
9:54 AM 46.0 °F 40.2 °F 44.1 °F 93% 29.94 in 10.0 mi North 12.7 mph - N/A   Overcast
10:25 AM 46.4 °F 40.4 °F 44.6 °F 93% 29.92 in 10.0 mi North 13.8 mph - N/A   Overcast
10:54 AM 48.0 °F - 45.0 °F 89% 29.92 in 10.0 mi North 12.7 mph - N/A   Overcast
11:54 AM 46.4 °F 40.4 °F 44.6 °F 93% 29.92 in 10.0 mi NW 13.8 mph - N/A   Overcast
12:11 PM 46.4 °F 40.1 °F 44.6 °F 93% 29.92 in 10.0 mi NW 15.0 mph - N/A   Overcast
12:54 PM 48.0 °F - 44.1 °F 86% 29.92 in 9.0 mi NW 10.4 mph 20.7 mph N/A   Overcast
1:54 PM 46.0 °F 39.9 °F 43.0 °F 89% 29.94 in 7.0 mi NW 13.8 mph - N/A   Overcast
2:54 PM 46.0 °F 40.2 °F 43.0 °F 89% 29.96 in 5.0 mi NW 12.7 mph - N/A   Overcast
3:54 PM 46.9 °F - 44.1 °F 90% 29.98 in 7.0 mi NW 11.5 mph - N/A   Overcast
4:54 PM 46.0 °F 41.0 °F 44.1 °F 93% 30.01 in 6.0 mi NW 10.4 mph - N/A   Overcast
5:54 PM 46.0 °F 39.9 °F 43.0 °F 89% 30.04 in 7.0 mi WNW 13.8 mph - N/A   Overcast
6:54 PM 44.6 °F 37.4 °F 42.8 °F 93% 30.06 in 7.0 mi NW 16.1 mph - N/A   Overcast
7:54 PM 45.0 °F 40.6 °F 43.0 °F 93% 30.09 in 5.0 mi NW 8.1 mph - N/A   Overcast
8:54 PM 44.6 °F 39.2 °F 42.8 °F 93% 30.11 in 5.0 mi NW 10.4 mph - N/A   Overcast
9:42 PM 44.6 °F 39.7 °F 42.8 °F 93% 30.12 in 7.0 mi WNW 9.2 mph - N/A   Overcast
9:54 PM 44.1 °F 39.0 °F 42.1 °F 93% 30.14 in 7.0 mi WNW 9.2 mph - N/A   Overcast
10:42 PM 44.6 °F 40.2 °F 42.8 °F 93% 30.14 in 10.0 mi NW 8.1 mph - N/A   Overcast
10:54 PM 44.1 °F 39.5 °F 41.0 °F 89% 30.15 in 10.0 mi NW 8.1 mph - N/A   Overcast
11:54 PM 44.1 °F 40.1 °F 41.0 °F 89% 30.16 in 9.0 mi NW 6.9 mph - N/A   Overcast